Regional Weather Roundup
Issued by NWS Columbia, SC

Home | Current Version | Previous Version | Text Only | Print | Product List | Glossary On
Versions: 1 2 3 4 5 6 7 8 9 10 11 12 13 14 15 16 17 18 19 20 21 22 23 24 25 26 27
000
ASUS42 KCAE 301310
RWRCAE
REGIONAL WEATHER ROUNDUP
NATIONAL WEATHER SERVICE COLUMBIA SC
900 AM EDT FRI SEP 30 2016

NOTE: "FAIR" INDICATES FEW OR NO CLOUDS BELOW 12,000 FEET WITH NO
SIGNIFICANT WEATHER AND/OR OBSTRUCTIONS TO VISIBILITY.

NOT ALL STATIONS ARE QUALITY CONTROLLED BY THE NATIONAL
WEATHER SERVICE. USE DATA WITH CAUTION...ESPECIALLY
DEWPOINT OBSERVATIONS.

SCZ001>056-GAZ040-063>065-077-301400-
...UPSTATE SOUTH CAROLINA...

CITY           SKY/WX    TMP DP  RH WIND       PRES   REMARKS
ANDERSON       SUNNY     58  53  84 CALM      30.00R
LIBERTY        MOSUNNY   54  49  85 CALM      29.99S
SPARTANBURG    SUNNY     61  52  72 CALM      30.00R
CLEMSON        SUNNY     60  50  69 CALM      30.01R
GREENVILLE     SUNNY     62  52  69 W3        30.00R
GREENWOOD      SUNNY     60  50  69 SW5       30.02R
GREER          SUNNY     61  53  75 CALM      29.99R
ROCK HILL      SUNNY     64  59  83 SW3       30.00R
CHESTER        MOSUNNY   63  54  72 CALM      29.99F
LAURENS        SUNNY     59  52  77 CALM      30.00S


...CENTRAL SOUTH CAROLINA...

CITY           SKY/WX    TMP DP  RH WIND       PRES   REMARKS
COLUMBIA APT   MOSUNNY   66  54  65 SW5       29.99R
COLUMBIA OWENS SUNNY     66  55  67 CALM      30.01R
MCENTIRE ANGB  MOSUNNY   65  62  90 CALM      30.00R
ORANGEBURG     SUNNY     67  54  63 NW6       30.00R
SUMTER SHAW    SUNNY     70  57  64 CALM      29.97R
NEWBERRY       SUNNY     61  55  82 SW6       30.03R
MANNING        FAIR      70  64  83 CALM      30.00R
LANCASTER      SUNNY     64  64 100 CALM      30.00R
WINNSBORO      SUNNY     64  57  77 CALM      30.00R


...EASTERN AND COASTAL SOUTH CAROLINA...

CITY           SKY/WX    TMP DP  RH WIND       PRES   REMARKS
MYRTLE BEACH   PTSUNNY   75  66  73 CALM      30.00R
N MYRTLE BCH   PTSUNNY   79  74  84 SE3       29.98R
CONWAY         PTSUNNY   70  70 100 CALM      29.99R FOG
MARION         CLOUDY    70  70 100 CALM      29.99R FOG
HARTSVILLE     CLOUDY    68  68 100 CALM      29.99R VSB 3/4
FLORENCE       FOG       73  72  96 W7        29.99R VSB 1
DARLINGTON     PTSUNNY   71  71 100 SW5       30.00R FOG
CHARLESTON APT MOSUNNY   75  70  84 NW5       29.99R
MOUNT PLEASANT FAIR      75  75 100 CALM      29.99S
WALTERBORO     SUNNY     70  64  83 NW5       30.01S
BEAUFORT       MOSUNNY   73  59  61 N6        30.00R


...EASTERN GEORGIA...

CITY           SKY/WX    TMP DP  RH WIND       PRES   REMARKS
AUGUSTA BUSH F SUNNY     63  51  65 W6        30.01R
AUGUSTA DANIEL SUNNY     65  48  54 W3        30.02R
THOMSON        SUNNY     61  54  78 W3        30.06S
WASHINGTON     FAIR      61  52  72 W3        30.02R
CLAXTON        FAIR      64  58  79 CALM      30.03R
STATESBORO     SUNNY     65  57  74 CALM      30.02S
SAVANNAH       MOSUNNY   69  57  65 N3        30.01S


...SOUTHERN NORTH CAROLINA...

CITY           SKY/WX    TMP DP  RH WIND       PRES   REMARKS
CHARLOTTE      PTSUNNY   68  65  90 SE7       29.99S FOG
MONROE         SUNNY     69  65  86 CALM      29.98S
WADESBORO      CLOUDY    72  68  89 SW3       29.98S FOG
RUTHERFORDTON  SUNNY     59  58  96 CALM      30.00R
ASHEVILLE      SUNNY     55  48  77 N6        30.04R

$$




USA.gov is the U.S. government's official web portal to all federal, state and local government web resources and services.